フルス彗星

P/2021 N2 ( Fuls )

English version
Home page
Updated on April 15, 2023

---------------------------------------------------------------------

・ プロフィール

発見日 2021年7月9日
発見光度 18.3等
発見者 David Carson Fuls (Catalina Sky Survey)

・ 写真集

・ 軌道要素

Epoch 2023 Feb. 25.0 TT = JDT 2460000.5
T 2021 Nov. 13.78634 TT                                 Rudenko
q   3.7976212            (2000.0)            P               Q
n   0.05394381     Peri.  177.43134     +0.77452362     -0.61439281
a   6.9370525      Node   221.73682     +0.57624544     +0.78343063
e   0.4525598      Incl.   13.06148     +0.26087228     +0.09358378
P  18.3
>From 1005 observations 2021 June 27-2023 Mar. 19, mean residual 0".4.

・ 星図

・ 光度変化

        m1 = -44.5 + 5 logΔ + 100   log r(t - 30)   [ ,0]  (              〜2021年11月13日)
        m1 =   7.0 + 5 logΔ +  11.0 log r(t - 120)  [0, ]  (2021年11月13日〜              )

---------------------------------------------------------------------

軌道要素はM.P.E.C. 2023-F81に掲載されたものです。
星図はステラナビゲータ Ver.10 (アストロアーツ) で作成したものです。
光度グラフはComet for Windowsで作成したものです。

---------------------------------------------------------------------

Copyright(C) Seiichi Yoshida (comet@aerith.net). All rights reserved.